| time (UTC) | temp C | wind direction | speed KPH | gust KPH | rain 1hr cm | rain 24hr cm | rain mn cm | humidity % | barometer mb |
| 20260902222550 | 23 | 225 | 1.6 | 3.2 | 0.00 | 0.00 | 0.00 | 66 | 1018.7 |
| 20260902221547 | 23 | 300 | 0.0 | 3.2 | 0.00 | 0.00 | 0.00 | 67 | 1018.9 |
| 20260902220545 | 23 | 248 | 3.2 | 6.4 | 0.00 | 0.00 | 0.00 | 70 | 1018.9 |
| 20260902215542 | 22 | 237 | 4.8 | 6.4 | 0.00 | 0.00 | 0.00 | 72 | 1018.9 |
| 20260902214540 | 23 | 249 | 4.8 | 6.4 | 0.00 | 0.00 | 0.00 | 71 | 1018.9 |
| 20260902213537 | 23 | 236 | 3.2 | 6.4 | 0.00 | 0.00 | 0.00 | 72 | 1018.8 |
| 20260902212534 | 23 | 248 | 3.2 | 3.2 | 0.00 | 0.00 | 0.00 | 72 | 1019.0 |
| 20260902211532 | 23 | 203 | 0.0 | 3.2 | 0.00 | 0.00 | 0.00 | 72 | 1018.9 |
| 20260902210529 | 23 | 203 | 0.0 | 3.2 | 0.00 | 0.00 | 0.00 | 72 | 1018.8 |
| 20260902205527 | 23 | 315 | 1.6 | 3.2 | 0.00 | 0.00 | 0.00 | 72 | 1018.7 |
| 20260902204524 | 23 | 270 | 1.6 | 3.2 | 0.00 | 0.00 | 0.00 | 72 | 1018.7 |
| 20260902203521 | 23 | 245 | 3.2 | 6.4 | 0.00 | 0.00 | 0.00 | 72 | 1018.7 |
| 20260902202519 | 24 | 207 | 1.6 | 3.2 | 0.00 | 0.00 | 0.00 | 71 | 1018.8 |
| 20260902201516 | 24 | 224 | 3.2 | 6.4 | 0.00 | 0.00 | 0.00 | 71 | 1018.8 |
| 20260902200614 | 24 | 276 | 1.6 | 3.2 | 0.00 | 0.00 | 0.00 | 71 | 1018.7 |
| 20260902195611 | 24 | 305 | 4.8 | 6.4 | 0.00 | 0.00 | 0.00 | 71 | 1018.7 |
| 20260902194608 | 24 | 311 | 6.4 | 9.7 | 0.00 | 0.00 | 0.00 | 70 | 1018.6 |
| 20260902193606 | 24 | 3 | 3.2 | 6.4 | 0.00 | 0.00 | 0.00 | 69 | 1018.4 |
| 20260902192603 | 24 | 1 | 3.2 | 6.4 | 0.00 | 0.00 | 0.00 | 69 | 1018.4 |
| 20260902191601 | 25 | 113 | 3.2 | 6.4 | 0.00 | 0.00 | 0.00 | 69 | 1018.4 |
| 20260902190558 | 25 | 101 | 3.2 | 9.7 | 0.00 | 0.00 | 0.00 | 68 | 1018.1 |
| 20260902185555 | 25 | 22 | 4.8 | 12.9 | 0.00 | 0.00 | 0.00 | 68 | 1018.0 |
| 20260902184553 | 25 | 92 | 3.2 | 11.3 | 0.00 | 0.00 | 0.00 | 68 | 1017.8 |
| 20260902183550 | 25 | 22 | 6.4 | 12.9 | 0.00 | 0.00 | 0.00 | 67 | 1017.8 |
| 20260902182548 | 25 | 37 | 6.4 | 17.7 | 0.00 | 0.00 | 0.00 | 66 | 1017.8 |
| 20260902181545 | 26 | 81 | 4.8 | 12.9 | 0.00 | 0.00 | 0.00 | 65 | 1017.6 |
| 20260902180542 | 26 | 31 | 6.4 | 14.5 | 0.00 | 0.00 | 0.00 | 64 | 1017.5 |
| 20260902175540 | 26 | 35 | 4.8 | 12.9 | 0.00 | 0.00 | 0.00 | 62 | 1017.4 |
| 20260902174537 | 26 | 60 | 6.4 | 17.7 | 0.00 | 0.00 | 0.00 | 62 | 1017.2 |
| 20260902173535 | 27 | 67 | 4.8 | 11.3 | 0.00 | 0.00 | 0.00 | 61 | 1017.3 |
| 20260902172532 | 27 | 57 | 8.0 | 17.7 | 0.00 | 0.00 | 0.00 | 60 | 1017.3 |
| 20260902171529 | 27 | 65 | 6.4 | 17.7 | 0.00 | 0.00 | 0.00 | 59 | 1017.3 |
| 20260902170527 | 27 | 30 | 6.4 | 17.7 | 0.00 | 0.00 | 0.00 | 59 | 1017.2 |
| 20260902165524 | 27 | 50 | 9.7 | 20.9 | 0.00 | 0.00 | 0.00 | 58 | 1017.3 |
| 20260902164522 | 27 | 39 | 6.4 | 14.5 | 0.00 | 0.00 | 0.00 | 56 | 1017.3 |
| 20260902163519 | 28 | 10 | 4.8 | 12.9 | 0.00 | 0.00 | 0.00 | 55 | 1017.2 |
| 20260902162517 | 28 | 39 | 11.3 | 20.9 | 0.00 | 0.00 | 0.00 | 54 | 1017.2 |
| 20260902161614 | 28 | 32 | 9.7 | 17.7 | 0.00 | 0.00 | 0.00 | 53 | 1017.1 |
| 20260902160612 | 29 | 118 | 4.8 | 14.5 | 0.00 | 0.00 | 0.00 | 50 | 1017.3 |
| 20260902155609 | 28 | 60 | 8.0 | 17.7 | 0.00 | 0.00 | 0.00 | 52 | 1017.3 |
| 20260902154606 | 28 | 81 | 6.4 | 14.5 | 0.00 | 0.00 | 0.00 | 51 | 1017.3 |
| 20260902153604 | 28 | 123 | 8.0 | 20.9 | 0.00 | 0.00 | 0.00 | 51 | 1017.3 |
| 20260902152601 | 30 | 66 | 6.4 | 17.7 | 0.00 | 0.00 | 0.00 | 48 | 1017.3 |
| 20260902151559 | 29 | 18 | 9.7 | 22.5 | 0.00 | 0.00 | 0.00 | 49 | 1017.4 |
| 20260902150556 | 29 | 44 | 6.4 | 17.7 | 0.00 | 0.00 | 0.00 | 48 | 1017.4 |
| 20260902145553 | 29 | 354 | 11.3 | 20.9 | 0.00 | 0.00 | 0.00 | 46 | 1017.3 |
| 20260902144551 | 30 | 59 | 9.7 | 20.9 | 0.00 | 0.00 | 0.00 | 45 | 1017.3 |
| 20260902143548 | 30 | 348 | 8.0 | 22.5 | 0.00 | 0.00 | 0.00 | 44 | 1017.4 |
| 20260902142546 | 30 | 59 | 8.0 | 14.5 | 0.00 | 0.00 | 0.00 | 43 | 1017.6 |
| 20260902141543 | 31 | 133 | 4.8 | 12.9 | 0.00 | 0.00 | 0.00 | 42 | 1017.6 |
| 20260902140540 | 30 | 66 | 8.0 | 14.5 | 0.00 | 0.00 | 0.00 | 42 | 1017.6 |
| 20260902135538 | 30 | 333 | 6.4 | 17.7 | 0.00 | 0.00 | 0.00 | 42 | 1017.6 |
| 20260902134535 | 30 | 45 | 6.4 | 20.9 | 0.00 | 0.00 | 0.00 | 42 | 1017.7 |
| 20260902133533 | 30 | 46 | 8.0 | 22.5 | 0.00 | 0.00 | 0.00 | 43 | 1017.7 |
| 20260902132530 | 30 | 337 | 8.0 | 20.9 | 0.00 | 0.00 | 0.00 | 43 | 1017.8 |
| 20260902131527 | 30 | 37 | 12.9 | 22.5 | 0.00 | 0.00 | 0.00 | 43 | 1017.8 |
| 20260902130525 | 30 | 2 | 8.0 | 17.7 | 0.00 | 0.00 | 0.00 | 42 | 1017.8 |
| 20260902125522 | 30 | 70 | 11.3 | 22.5 | 0.00 | 0.00 | 0.00 | 42 | 1017.9 |
| 20260902124520 | 30 | 328 | 6.4 | 20.9 | 0.00 | 0.00 | 0.00 | 40 | 1017.9 |
| 20260902123517 | 31 | 95 | 6.4 | 14.5 | 0.00 | 0.00 | 0.00 | 40 | 1017.8 |
| 20260902122515 | 31 | 131 | 4.8 | 14.5 | 0.00 | 0.00 | 0.00 | 39 | 1017.8 |
| 20260902121612 | 30 | 303 | 4.8 | 14.5 | 0.00 | 0.00 | 0.00 | 40 | 1017.8 |
| 20260902120610 | 30 | 53 | 8.0 | 20.9 | 0.00 | 0.00 | 0.00 | 40 | 1017.8 |
| 20260902115607 | 30 | 167 | 8.0 | 17.7 | 0.00 | 0.00 | 0.00 | 40 | 1018.0 |
| 20260902114604 | 30 | 78 | 6.4 | 22.5 | 0.00 | 0.00 | 0.00 | 41 | 1017.9 |
| 20260902113602 | 31 | 32 | 4.8 | 11.3 | 0.00 | 0.00 | 0.00 | 42 | 1017.9 |
| 20260902112559 | 31 | 293 | 4.8 | 12.9 | 0.00 | 0.00 | 0.00 | 42 | 1017.9 |
| 20260902111557 | 31 | 226 | 3.2 | 11.3 | 0.00 | 0.00 | 0.00 | 42 | 1017.7 |
| 20260902110554 | 31 | 97 | 3.2 | 6.4 | 0.00 | 0.00 | 0.00 | 42 | 1017.9 |
| 20260902105551 | 30 | 128 | 3.2 | 9.7 | 0.00 | 0.00 | 0.00 | 40 | 1018.0 |
| 20260902104549 | 30 | 32 | 4.8 | 17.7 | 0.00 | 0.00 | 0.00 | 39 | 1017.9 |
| 20260902103546 | 30 | 110 | 3.2 | 11.3 | 0.00 | 0.00 | 0.00 | 40 | 1018.0 |
| 20260902102544 | 30 | 109 | 3.2 | 11.3 | 0.00 | 0.00 | 0.00 | 40 | 1018.0 |
| 20260902101541 | 30 | 103 | 3.2 | 9.7 | 0.00 | 0.00 | 0.00 | 41 | 1018.0 |
| 20260902100539 | 30 | 71 | 4.8 | 11.3 | 0.00 | 0.00 | 0.00 | 43 | 1018.0 |
| 20260902095536 | 29 | 350 | 4.8 | 11.3 | 0.00 | 0.00 | 0.00 | 43 | 1018.0 |
| 20260902094533 | 29 | 140 | 4.8 | 12.9 | 0.00 | 0.00 | 0.00 | 47 | 1018.0 |
| 20260902093531 | 28 | 45 | 4.8 | 12.9 | 0.00 | 0.00 | 0.00 | 48 | 1018.0 |
| 20260902092528 | 28 | 53 | 3.2 | 11.3 | 0.00 | 0.00 | 0.00 | 50 | 1018.0 |
| 20260902091525 | 28 | 61 | 3.2 | 12.9 | 0.00 | 0.00 | 0.00 | 50 | 1017.8 |
| 20260902090523 | 28 | 33 | 1.6 | 6.4 | 0.00 | 0.00 | 0.00 | 51 | 1017.8 |
| 20260902085520 | 28 | 244 | 1.6 | 6.4 | 0.00 | 0.00 | 0.00 | 54 | 1017.8 |
| 20260902084517 | 27 | 50 | 3.2 | 11.3 | 0.00 | 0.00 | 0.00 | 57 | 1017.7 |
| 20260902083515 | 27 | 42 | 6.4 | 11.3 | 0.00 | 0.00 | 0.00 | 59 | 1017.7 |
| 20260902082613 | 27 | 57 | 1.6 | 6.4 | 0.00 | 0.00 | 0.00 | 62 | 1017.6 |
| 20260902081610 | 27 | 63 | 0.0 | 3.2 | 0.00 | 0.00 | 0.00 | 62 | 1017.5 |
| 20260902080607 | 26 | 112 | 1.6 | 6.4 | 0.00 | 0.00 | 0.00 | 63 | 1017.4 |
| 20260902075605 | 26 | 107 | 1.6 | 3.2 | 0.00 | 0.00 | 0.00 | 65 | 1017.4 |
| 20260902074602 | 26 | 90 | 0.0 | 3.2 | 0.00 | 0.00 | 0.00 | 65 | 1017.2 |
| 20260902073600 | 26 | 100 | 0.0 | 3.2 | 0.00 | 0.00 | 0.00 | 64 | 1017.3 |
| 20260902072557 | 25 | 0.0 | 3.2 | 0.00 | 0.00 | 0.00 | 66 | 1017.3 | |
| 20260902071555 | 25 | 203 | 0.0 | 3.2 | 0.00 | 0.00 | 0.00 | 67 | 1017.3 |
| 20260902070552 | 24 | 248 | 0.0 | 3.2 | 0.00 | 0.00 | 0.00 | 70 | 1017.1 |
| 20260902065549 | 23 | 242 | 1.6 | 3.2 | 0.00 | 0.00 | 0.00 | 72 | 1017.1 |
| 20260902064547 | 23 | 234 | 1.6 | 3.2 | 0.00 | 0.00 | 0.00 | 72 | 1017.0 |
| 20260902063544 | 22 | 248 | 0.0 | 3.2 | 0.00 | 0.00 | 0.00 | 73 | 1016.8 |
| 20260902062542 | 22 | 158 | 0.0 | 3.2 | 0.00 | 0.00 | 0.00 | 74 | 1016.7 |
| 20260902061539 | 22 | 248 | 0.0 | 3.2 | 0.00 | 0.00 | 0.00 | 76 | 1016.6 |
| 20260902060536 | 21 | 189 | 1.6 | 3.2 | 0.00 | 0.00 | 0.00 | 78 | 1016.6 |
| 20260902055534 | 21 | 0.0 | 0.0 | 0.00 | 0.00 | 0.00 | 80 | 1016.4 | |
| 20260902054531 | 21 | 0.0 | 0.0 | 0.00 | 0.00 | 0.00 | 81 | 1016.4 | |
| 20260902053529 | 21 | 0.0 | 3.2 | 0.00 | 0.00 | 0.00 | 83 | 1016.4 | |
| 20260902052526 | 21 | 288 | 1.6 | 3.2 | 0.00 | 0.00 | 0.00 | 83 | 1016.4 |
| 20260902051523 | 21 | 270 | 0.0 | 3.2 | 0.00 | 0.00 | 0.00 | 83 | 1016.4 |
| 20260902050521 | 21 | 232 | 0.0 | 3.2 | 0.00 | 0.00 | 0.00 | 83 | 1016.1 |
| 20260902045518 | 21 | 0.0 | 3.2 | 0.00 | 0.00 | 0.00 | 83 | 1016.1 | |
| 20260902044516 | 21 | 0.0 | 0.0 | 0.00 | 0.00 | 0.00 | 83 | 1016.0 | |
| 20260902043613 | 21 | 0.0 | 0.0 | 0.00 | 0.00 | 0.00 | 82 | 1016.2 | |
| 20260902042611 | 21 | 248 | 0.0 | 3.2 | 0.00 | 0.00 | 0.00 | 83 | 1016.1 |
| 20260902041608 | 21 | 203 | 0.0 | 3.2 | 0.00 | 0.00 | 0.00 | 83 | 1016.0 |
| 20260902040605 | 21 | 0.0 | 0.0 | 0.00 | 0.00 | 0.00 | 83 | 1016.3 | |
| 20260902035603 | 21 | 248 | 0.0 | 3.2 | 0.00 | 0.00 | 0.00 | 84 | 1016.3 |
| 20260902034600 | 21 | 0.0 | 0.0 | 0.00 | 0.00 | 0.00 | 85 | 1016.3 | |
| 20260902033558 | 21 | 0.0 | 3.2 | 0.00 | 0.00 | 0.00 | 85 | 1016.3 | |
| 20260902032555 | 21 | 0.0 | 0.0 | 0.00 | 0.00 | 0.00 | 84 | 1016.5 | |
| 20260902031552 | 21 | 0.0 | 0.0 | 0.00 | 0.00 | 0.00 | 84 | 1016.5 | |
| 20260902030550 | 21 | 277 | 0.0 | 3.2 | 0.00 | 0.00 | 0.00 | 84 | 1016.3 |
| 20260902025547 | 21 | 0.0 | 0.0 | 0.00 | 0.00 | 0.00 | 84 | 1016.3 | |
| 20260902024545 | 21 | 0.0 | 0.0 | 0.00 | 0.00 | 0.00 | 85 | 1016.5 | |
| 20260902023542 | 21 | 0.0 | 3.2 | 0.00 | 0.00 | 0.00 | 85 | 1016.3 | |
| 20260902022539 | 21 | 225 | 4.8 | 6.4 | 0.00 | 0.00 | 0.00 | 86 | 1016.5 |
| 20260902021537 | 21 | 192 | 3.2 | 6.4 | 0.00 | 0.00 | 0.00 | 86 | 1016.5 |
| 20260902020534 | 21 | 225 | 0.0 | 3.2 | 0.00 | 0.00 | 0.00 | 86 | 1016.6 |
| 20260902015532 | 21 | 230 | 6.4 | 6.4 | 0.00 | 0.00 | 0.00 | 87 | 1016.7 |
| 20260902014529 | 21 | 230 | 4.8 | 6.4 | 0.00 | 0.00 | 0.00 | 87 | 1016.6 |
| 20260902013526 | 21 | 237 | 6.4 | 11.3 | 0.00 | 0.00 | 0.00 | 87 | 1016.9 |
| 20260902012524 | 21 | 227 | 1.6 | 6.4 | 0.00 | 0.00 | 0.00 | 86 | 1016.9 |
| 20260902011521 | 21 | 191 | 0.0 | 3.2 | 0.00 | 0.00 | 0.00 | 87 | 1016.9 |
| 20260902010519 | 21 | 240 | 3.2 | 6.4 | 0.00 | 0.00 | 0.00 | 87 | 1016.9 |
| 20260902005516 | 21 | 221 | 4.8 | 6.4 | 0.00 | 0.00 | 0.00 | 87 | 1017.1 |
| 20260902004614 | 21 | 222 | 4.8 | 6.4 | 0.00 | 0.00 | 0.00 | 87 | 1017.2 |
| 20260902003611 | 21 | 236 | 6.4 | 6.4 | 0.00 | 0.00 | 0.00 | 86 | 1017.0 |
| 20260902002608 | 21 | 209 | 3.2 | 6.4 | 0.00 | 0.00 | 0.00 | 86 | 1017.0 |
| 20260902001606 | 21 | 218 | 1.6 | 6.4 | 0.00 | 0.00 | 0.00 | 86 | 1017.2 |
| 20260902000603 | 21 | 225 | 3.2 | 3.2 | 0.00 | 0.00 | 0.00 | 86 | 1017.1 |
| 20260901235601 | 21 | 235 | 4.8 | 9.7 | 0.00 | 0.00 | 0.00 | 85 | 1017.0 |
| 20260901234558 | 21 | 258 | 4.8 | 9.7 | 0.00 | 0.00 | 0.00 | 85 | 1017.0 |
| 20260901233555 | 22 | 228 | 3.2 | 6.4 | 0.00 | 0.00 | 0.00 | 84 | 1017.0 |
| 20260901232553 | 22 | 245 | 1.6 | 6.4 | 0.00 | 0.00 | 0.00 | 84 | 1017.1 |
| 20260901231550 | 22 | 215 | 3.2 | 6.4 | 0.00 | 0.00 | 0.00 | 84 | 1017.0 |
| 20260901230548 | 22 | 222 | 3.2 | 6.4 | 0.00 | 0.00 | 0.00 | 83 | 1017.0 |
| 20260901225545 | 22 | 213 | 3.2 | 6.4 | 0.00 | 0.00 | 0.00 | 83 | 1017.0 |
| 20260901224543 | 22 | 199 | 3.2 | 6.4 | 0.00 | 0.00 | 0.00 | 83 | 1016.7 |
| 20260901223540 | 22 | 220 | 3.2 | 9.7 | 0.00 | 0.00 | 0.00 | 82 | 1016.7 |